Date,TemperatureHighF,TemperatureAvgF,TemperatureLowF,DewpointHighF,DewpointAvgF,DewpointLowF,HumidityHigh,HumidityAvg,HumidityLow,PressureMaxIn,PressureMinIn,WindSpeedMaxMPH,WindSpeedAvgMPH,GustSpeedMaxMPH,PrecipitationSumIn
2013-9-1,86.5,64.7,45.0,61.0,52.0,44.0,98,70,26,29.90,29.66,2,0,5,0.01
2013-9-2,85.1,67.1,51.3,60.0,54.7,50.0,97,69,31,29.85,29.70,3,0,6,0.00
2013-9-3,76.4,64.4,55.4,61.0,56.2,52.0,95,76,52,29.95,29.84,0,0,7,0.00
2013-9-4,84.5,66.2,51.6,65.0,55.8,50.0,96,73,39,29.95,29.83,3,0,4,0.00
2013-9-5,77.1,64.9,56.8,66.0,60.6,54.0,98,87,62,29.95,29.74,0,0,9,0.02
2013-9-6,62.8,57.8,53.5,61.0,56.7,53.0,98,96,82,30.07,29.85,0,0,2,0.18
2013-9-7,61.3,56.7,53.5,60.0,56.0,53.0,99,97,95,30.07,30.01,0,0,0,0.13
2013-9-8,76.5,61.1,49.8,63.0,55.5,49.0,99,84,53,30.07,29.92,1,0,8,0.00
2013-9-9,80.9,63.1,49.5,61.0,54.6,49.0,98,78,39,29.98,29.86,1,0,5,0.00
2013-9-10,82.2,62.7,47.2,63.0,54.3,46.0,98,78,39,30.00,29.89,0,0,3,0.00
2013-9-11,84.8,63.4,46.6,62.0,53.5,46.0,98,76,30,30.05,29.93,2,0,3,0.00
2013-9-12,87.0,64.4,47.6,63.0,54.8,47.0,98,76,32,30.00,29.79,0,0,2,0.00
2013-9-13,86.7,66.7,49.9,65.0,57.2,49.0,98,76,37,29.85,29.69,1,0,6,0.00
2013-9-14,86.7,66.7,50.5,67.0,57.6,49.0,98,77,32,29.82,29.70,1,0,6,0.00
2013-9-15,83.3,66.7,54.1,63.0,56.6,51.0,96,74,34,29.74,29.54,3,0,8,0.26
2013-9-16,68.4,59.1,51.5,57.0,53.8,49.0,98,84,58,29.81,29.68,3,0,7,0.00
2013-9-17,64.8,54.5,45.5,53.0,48.4,44.0,98,81,60,29.82,29.69,4,0,7,0.00
2013-9-18,63.7,51.7,41.6,49.0,44.1,40.0,95,77,51,30.06,29.82,3,0,7,0.00
2013-9-19,66.7,49.0,33.3,50.0,41.4,32.0,98,78,42,30.11,29.91,1,0,4,0.00
2013-9-20,69.0,51.5,34.4,55.0,44.4,33.0,98,80,42,29.92,29.57,0,0,4,0.00
2013-9-21,65.7,54.4,44.1,52.0,46.4,42.0,98,77,43,29.65,29.58,3,0,7,0.00
2013-9-22,55.0,46.7,42.0,50.0,44.5,40.0,98,92,75,29.73,29.60,0,0,0,0.19
2013-9-23,53.2,47.1,42.0,51.0,45.8,41.0,98,95,84,29.93,29.73,0,0,2,0.03
2013-9-24,57.3,46.7,38.1,46.0,41.9,37.0,98,85,55,29.92,29.77,3,0,7,0.00
2013-9-25,60.0,45.7,35.0,49.0,40.8,34.0,98,85,52,29.96,29.81,2,0,9,0.02
2013-9-26,57.7,45.6,37.1,47.0,41.1,36.0,98,85,54,30.10,29.96,0,0,5,0.00
2013-9-27,49.0,42.8,34.4,46.0,41.2,33.0,97,94,83,30.11,29.88,0,0,1,0.11
2013-9-28,48.0,44.6,40.2,47.0,43.9,39.0,98,97,96,29.88,29.40,0,0,1,0.77
2013-9-29,49.7,44.4,37.5,49.0,43.6,37.0,99,97,88,29.58,29.30,2,0,2,0.22
2013-9-30,45.2,39.4,34.3,45.0,38.8,34.0,98,97,95,29.93,29.40,1,0,3,1.11